Location: Las Navas
(40.6024°N, 4.3345°W)
Time: 09:00:24
(UTC+00:00)

ARGOS - Pass Details

Date: 03 April 2020
Orbit: 820 x 834 km, 98.5° (Epoch: 29 May)

Event Time Altitude Azimuth Distance (km) Brightness Sun altitude
Exits shadow 19:33:00 - 152° (SSE) 3,256 5.8 -9.8°
Reaches altitude 10° 19:35:08 10° 148° (SSE) 2,430 5.2 -10.2°
Maximum altitude 19:40:22 54° 72° (ENE) 1,000 3.3 -11.1°
Drops below altitude 10° 19:45:36 10° 356° (N) 2,437 5.9 -12.1°
Sets 19:48:00 0° 352° (N) 3,372 6.7 -12.5°
